Total_Precipitation_Accumulation
0.00 0.00 0.00 -0.13 -0.11 -0.11 -0.07 -0.03 -0.05 -0.05 -0.03 -0.00 0.00 0.00 0.00 0.00 0.00 0.00 -0.00 -0.19 -0.19 -0.17 -0.10 0.11 0.13 0.13 0.24 0.03 0.04 0.04 0.00 0.00 0.00 0.00 0.00 0.00 0.00 0.00 0.00 0.00 0.00 0.00 0.00 0.00 0.00 0.00 0.00 0.00 0.00 0.00 0.00 0.00 0.00 0.00 0.00 -0.00 -0.00 0.00 0.00 0.00 0.00 0.00 0.00 0.00 0.00 0.00 0.00 0.00 0.00 0.00 0.00 0.00 0.00 0.00 0.00 0.00 0.00 0.00 0.00 0.00 0.00 0.00 0.00 0.00 0.00 0.00 0.00 0.00 0.00 0.00 0.00 0.00 0.00 0.00 0.00 0.00 0.00 0.00 0.00 0.00 0.00 0.00 0.00
0.00 0.00 0.00 -0.12 -0.09 -0.09 -0.07 -0.04 -0.03 -0.03 -0.01 -0.00 0.00 0.00 0.00 0.00 0.00 -0.00 -0.03 -0.20 -0.20 -0.17 -0.12 0.07 0.10 0.10 0.22 0.02 0.04 0.04 0.00 0.00 0.00 0.00 0.00 0.00 0.00 0.00 0.00 0.00 0.00 0.00 0.00 0.00 0.00 0.00 0.00 0.00 0.00 0.00 0.00 0.00 0.00 0.00 -0.00 0.00 0.00 0.00 0.00 0.00 0.00 0.00 0.00 0.00 0.00 0.00 0.00 0.00 0.00 0.00 0.00 0.00 0.00 0.00 0.00 0.00 0.00 0.00 0.00 0.00 0.00 0.00 0.00 0.00 0.00 0.00 0.00 0.00 0.00 0.00 0.00 0.00 0.00 0.00 0.00 0.00 0.00 0.00 0.00 0.00 0.00 0.00 0.00
0.00 0.00 0.00 -0.07 -0.04 -0.04 -0.07 -0.04 -0.03 -0.03 -0.01 -0.00 0.00 0.00 0.00 0.00 0.00 -0.03 -0.04 -0.18 -0.18 -0.16 -0.13 0.08 0.08 0.08 0.20 0.12 0.03 0.03 0.01 0.00 0.00 0.00 0.00 0.00 0.00 0.00 0.00 0.00 0.00 0.00 0.00 0.00 0.00 0.00 0.00 0.00 0.00 0.00 0.00 0.00 0.00 0.00 0.00 0.00 0.00 0.00 0.00 0.00 0.00 0.00 0.00 0.00 0.00 0.00 0.00 0.00 0.00 0.00 0.00 0.00 0.00 0.00 0.00 0.00 0.00 0.00 0.00 0.00 0.00 0.00 0.00 0.00 0.00 0.00 0.00 0.00 0.00 0.00 0.00 0.00 0.00 0.00 0.00 0.00 0.00 0.00 0.00 0.00 0.00 0.00 0.00
0.00 0.00 0.00 -0.04 -0.03 -0.03 -0.06 -0.05 -0.04 -0.04 -0.02 0.00 0.00 0.00 0.00 -0.00 -0.00 -0.02 -0.02 -0.04 -0.04 -0.09 -0.07 0.10 0.08 0.08 0.20 0.13 0.03 0.03 0.01 0.00 0.00 0.00 0.00 0.00 0.00 0.00 0.00 0.00 0.00 0.00 0.00 0.00 0.00 0.00 0.00 0.00 0.00 0.00 0.00 0.00 0.00 0.00 0.00 0.00 0.00 0.00 0.00 0.00 0.00 0.00 0.00 0.00 0.00 0.00 0.00 0.00 0.00 0.00 0.00 0.00 0.00 0.00 0.00 0.00 0.00 0.00 0.00 0.00 0.00 0.00 0.00 0.00 0.00 0.00 0.00 0.00 0.00 0.00 0.00 0.00 0.00 0.00 0.00 0.00 0.00 0.00 0.00 0.00 0.00 0.00 0.00
0.00 0.00 0.00 -0.00 -0.02 -0.02 -0.02 -0.06 -0.07 -0.07 -0.02 -0.00 0.00 0.00 0.00 -0.01 -0.01 -0.03 -0.01 -0.01 -0.01 -0.03 -0.01 0.12 0.10 0.10 0.17 0.21 0.01 0.01 0.01 0.00 0.00 0.00 0.00 0.00 0.00 0.00 0.00 0.00 0.00 0.00 0.00 0.00 0.00 0.00 0.00 0.00 0.00 0.00 0.00 0.00 0.00 0.00 0.00 0.00 0.00 0.00 0.00 0.00 0.00 0.00 0.00 0.00 0.00 0.00 0.00 0.00 0.00 0.00 0.00 0.00 0.00 0.00 0.00 0.00 0.00 0.00 0.00 0.00 0.00 0.00 0.00 0.00 0.00 0.00 0.00 0.00 0.00 0.00 0.00 0.00 0.00 0.00 0.00 0.00 0.00 0.00 0.00 0.00 0.00 0.00 0.00
0.00 0.00 0.00 0.00 -0.01 -0.01 -0.01 -0.07 -0.09 -0.09 -0.03 -0.00 0.00 0.00 0.00 -0.02 -0.02 -0.02 -0.01 0.00 0.00 0.05 0.03 0.11 0.12 0.12 0.14 0.21 0.06 0.06 0.00 0.01 0.00 0.00 0.00 0.00 0.00 0.00 0.00 0.00 0.00 0.00 0.00 0.00 0.00 0.00 0.00 0.00 0.00 0.00 0.00 0.00 0.00 0.00 0.00 0.00 0.00 0.00 0.00 0.00 0.00 0.00 0.00 0.00 0.00 0.00 0.00 0.00 0.00 0.00 0.00 0.00 0.00 0.00 0.00 0.00 0.00 0.00 0.00 0.00 0.00 0.00 0.00 0.00 0.00 0.00 0.00 0.00 0.00 0.00 0.00 0.00 0.00 0.00 0.00 0.00 0.00 0.00 0.00 0.00 0.00 0.00 0.00
0.00 0.00 0.00 0.00 0.00 0.00 -0.01 -0.07 -0.11 -0.11 -0.04 -0.00 0.00 0.00 -0.00 -0.02 -0.02 -0.02 -0.00 0.00 0.00 0.11 0.10 0.04 0.10 0.10 0.09 0.16 0.07 0.07 0.01 0.01 0.00 0.00 0.00 0.00 0.00 0.00 0.00 0.00 0.00 0.00 0.00 0.00 0.00 0.00 0.00 0.00 0.00 0.00 0.00 0.00 0.00 0.00 0.00 0.00 0.00 0.00 0.00 0.00 0.00 0.00 0.00 0.00 0.00 0.00 0.00 0.00 0.00 0.00 0.00 0.00 0.00 0.00 0.00 0.00 0.00 0.00 0.00 0.00 0.00 0.00 0.00 0.00 0.00 0.00 0.00 0.00 0.00 0.00 0.00 0.00 0.00 0.00 0.00 0.00 0.00 0.00 0.00 0.00 0.00 0.00 0.00
0.00 0.00 0.00 0.00 0.00 0.00 -0.00 -0.07 -0.12 -0.12 -0.03 -0.01 0.00 0.00 -0.01 -0.01 -0.01 -0.02 -0.01 0.01 0.01 0.00 0.15 0.06 0.09 0.09 0.06 0.11 0.07 0.07 0.01 0.00 0.00 0.00 0.00 0.00 0.00 0.00 0.00 0.00 0.00 0.00 0.00 0.00 0.00 0.00 0.00 0.00 0.00 0.00 0.00 0.00 0.00 0.00 0.00 0.00 0.00 0.00 0.00 0.00 0.00 0.00 0.00 0.00 0.00 0.00 0.00 0.00 0.00 0.00 0.00 0.00 0.00 0.00 0.00 0.00 0.00 0.00 0.00 0.00 0.00 0.00 0.00 0.00 0.00 0.00 0.00 0.00 0.00 0.00 0.00 0.00 0.00 0.00 0.00 0.00 0.00 0.00 0.00 0.00 0.00 0.00 0.00
0.00 0.00 0.00 0.00 0.00 0.00 0.00 -0.05 -0.13 -0.13 -0.04 -0.01 0.00 0.00 -0.01 -0.01 -0.01 -0.01 -0.00 0.01 0.01 0.00 0.14 0.10 0.09 0.09 0.05 0.09 0.07 0.07 0.03 0.00 0.00 0.00 0.00 0.00 0.00 0.00 0.00 0.00 0.00 0.00 0.00 0.00 0.00 0.00 0.00 0.00 0.00 0.00 0.00 0.00 0.00 0.00 0.00 0.00 0.00 0.00 0.00 0.00 0.00 0.00 0.00 0.00 0.00 0.00 0.00 0.00 0.00 0.00 0.00 0.00 0.00 0.00 0.00 0.00 0.00 0.00 0.00 0.00 0.00 0.00 0.00 0.00 0.00 0.00 0.00 0.00 0.00 0.00 0.00 0.00 0.00 0.00 0.00 0.00 0.00 0.00 0.00 0.00 0.00 0.00 0.00
0.00 0.00 0.00 0.00 0.00 0.00 0.00 -0.02 -0.12 -0.12 -0.04 -0.01 -0.00 -0.00 -0.01 -0.01 -0.01 -0.00 -0.00 0.00 0.00 0.00 0.12 0.11 0.09 0.09 0.07 0.06 0.07 0.07 0.03 0.01 0.00 0.00 0.00 0.00 0.00 0.00 0.00 0.00 0.00 0.00 0.00 0.00 0.00 0.00 0.00 0.00 0.00 0.00 0.00 0.00 0.00 0.00 0.00 0.00 0.00 0.00 0.00 0.00 0.00 0.00 0.00 0.00 0.00 0.00 0.00 0.00 0.00 0.00 0.00 0.00 0.00 0.00 0.00 0.00 0.00 0.00 0.00 0.00 0.00 0.00 0.00 0.00 0.00 0.00 0.00 0.00 0.00 0.00 0.00 0.00 0.00 0.00 0.00 0.00 0.00 0.00 0.00 0.00 0.00 0.00 0.00
0.00 0.00 0.00 0.00 0.00 0.00 0.00 -0.00 -0.10 -0.10 -0.07 -0.02 -0.00 -0.00 -0.01 -0.01 -0.01 -0.00 -0.00 0.01 0.01 0.00 0.01 0.09 0.09 0.09 0.08 0.07 0.06 0.06 0.03 0.01 0.00 0.00 0.00 0.00 0.00 0.00 0.00 0.00 0.00 0.00 0.00 0.00 0.00 0.00 0.00 0.00 0.00 0.00 0.00 0.00 0.00 0.00 0.00 0.00 0.00 0.00 0.00 0.00 0.00 0.00 0.00 0.00 0.00 0.00 0.00 0.00 0.00 0.00 0.00 0.00 0.00 0.00 0.00 0.00 0.00 0.00 0.00 0.00 0.00 0.00 0.00 0.00 0.00 0.00 0.00 0.00 0.00 0.00 0.00 0.00 0.00 0.00 0.00 0.00 0.00 0.00 0.00 0.00 0.00 0.00 0.00
0.00 0.00 0.00 0.00 0.00 0.00 0.00 -0.00 -0.08 -0.08 -0.06 -0.01 -0.01 -0.01 -0.02 -0.01 -0.01 -0.00 -0.01 -0.00 -0.00 0.00 0.01 0.09 0.08 0.08 0.09 0.07 0.03 0.03 0.02 0.02 0.00 0.00 0.00 0.00 0.00 0.00 0.00 0.00 0.00 0.00 0.00 0.00 0.00 0.00 0.00 0.00 0.00 0.00 0.00 0.00 0.00 0.00 0.00 0.00 0.00 0.00 0.00 0.00 0.00 0.00 0.00 0.00 0.00 0.00 0.00 0.00 0.00 0.00 0.00 0.00 0.00 0.00 0.00 0.00 0.00 0.00 0.00 0.00 0.00 0.00 0.00 0.00 0.00 0.00 0.00 0.00 0.00 0.00 0.00 0.00 0.00 0.00 0.00 0.00 0.00 0.00 0.00 0.00 0.00 0.00 0.00
0.00 0.00 0.00 0.00 0.00 0.00 -0.00 -0.00 -0.07 -0.07 -0.07 -0.01 -0.01 -0.01 -0.02 -0.01 -0.01 -0.00 -0.01 -0.00 -0.00 0.00 0.03 0.08 0.10 0.10 0.09 0.07 0.04 0.04 0.01 0.01 0.00 0.00 0.01 0.00 0.00 0.00 0.00 0.00 0.00 0.00 0.00 0.00 0.00 0.00 0.00 0.00 0.00 0.00 0.00 0.00 0.00 0.00 0.00 0.00 0.00 0.00 0.00 0.00 0.00 0.00 0.00 0.00 0.00 0.00 0.00 0.00 0.00 0.00 0.00 0.00 0.00 0.00 0.00 0.00 0.00 0.00 0.00 0.00 0.00 0.00 0.00 0.00 0.00 0.00 0.00 0.00 0.00 0.00 0.00 0.00 0.00 0.00 0.00 0.00 0.00 0.00 0.00 0.00 0.00 0.00 0.00
0.00 0.00 0.00 0.00 0.00 0.00 -0.00 -0.00 -0.04 -0.04 -0.06 -0.01 -0.02 -0.02 -0.04 -0.01 -0.01 -0.00 -0.01 -0.00 -0.00 0.00 0.05 0.07 0.07 0.07 0.08 0.08 0.05 0.05 0.02 0.01 0.01 0.01 0.01 0.01 0.01 0.00 0.00 0.00 0.00 0.00 0.00 0.00 0.00 0.00 0.00 0.00 0.00 0.00 0.00 0.00 0.00 0.00 0.00 0.00 0.00 0.00 0.00 0.00 0.00 0.00 0.00 0.00 0.00 0.00 0.00 0.00 0.00 0.00 0.00 0.00 0.00 0.00 0.00 0.00 0.00 0.00 0.00 0.00 0.00 0.00 0.00 0.00 0.00 0.00 0.00 0.00 0.00 0.00 0.00 0.00 0.00 0.00 0.00 0.00 0.00 0.00 0.00 0.00 0.00 0.00 0.00
0.00 0.00 0.00 0.00 0.00 0.00 -0.00 -0.00 -0.01 -0.01 -0.05 -0.02 -0.04 -0.04 -0.05 -0.01 -0.01 -0.00 0.01 0.00 0.00 0.00 0.00 0.00 0.02 0.02 0.06 0.09 0.07 0.07 0.03 0.02 0.01 0.01 0.01 0.02 0.02 0.00 0.00 0.00 0.00 0.00 0.00 0.00 0.00 0.00 0.00 0.00 0.00 0.00 0.00 0.00 0.00 0.00 0.00 0.00 0.00 0.00 0.00 0.00 0.00 0.00 0.00 0.00 0.00 0.00 0.00 0.00 0.00 0.00 0.00 0.00 0.00 0.00 0.00 0.00 0.00 0.00 0.00 0.00 0.00 0.00 0.00 0.00 0.00 0.00 0.00 0.00 0.00 0.00 0.00 0.00 0.00 0.00 0.00 0.00 0.00 0.00 0.00 0.00 0.00 0.00 0.00
0.00 0.00 0.00 0.00 0.00 0.00 -0.01 -0.00 -0.00 -0.00 -0.03 -0.03 -0.06 -0.06 -0.07 -0.01 -0.01 -0.01 0.01 0.01 0.01 0.00 0.00 -0.00 0.00 0.00 0.02 0.06 0.08 0.08 0.07 0.05 0.03 0.03 0.01 0.02 0.02 0.00 0.00 0.00 0.00 0.00 0.00 0.00 0.00 0.00 0.00 0.00 0.00 0.00 0.00 0.00 0.00 0.00 0.00 0.00 0.00 0.00 0.00 0.00 0.00 0.00 0.00 0.00 0.00 0.00 0.00 0.00 0.00 0.00 0.00 0.00 0.00 0.00 0.00 0.00 0.00 0.00 0.00 0.00 0.00 0.00 0.00 0.00 0.00 0.00 0.00 0.00 0.00 0.00 0.00 0.00 0.00 0.00 0.00 0.00 0.00 0.00 0.00 0.00 0.00 0.00 0.00
0.00 0.00 0.00 0.00 0.00 0.00 -0.01 -0.00 0.00 0.00 -0.01 -0.01 -0.08 -0.08 -0.09 -0.01 -0.01 -0.01 -0.01 0.02 0.02 0.01 0.00 -0.00 0.00 0.00 0.00 0.02 0.06 0.06 0.07 0.10 0.08 0.08 0.00 0.00 0.00 0.02 0.00 0.00 0.00 0.00 0.00 0.00 0.00 0.00 0.00 0.00 0.00 0.00 0.00 0.00 0.00 0.00 0.00 0.00 0.00 0.00 0.00 0.00 0.00 0.00 0.00 0.00 0.00 0.00 0.00 0.00 0.00 0.00 0.00 0.00 0.00 0.00 0.00 0.00 0.00 0.00 0.00 0.00 0.00 0.00 0.00 0.00 0.00 0.00 0.00 0.00 0.00 0.00 0.00 0.00 0.00 0.00 0.00 0.00 0.00 0.00 0.00 0.00 0.00 0.00 0.00
0.01 0.00 0.00 0.00 -0.00 -0.00 -0.01 -0.00 0.00 0.00 0.00 -0.00 -0.10 -0.10 -0.12 -0.02 -0.02 -0.01 -0.01 0.02 0.02 0.03 0.00 0.00 0.00 0.00 0.00 0.00 0.03 0.03 0.07 0.10 0.10 0.10 0.01 0.00 0.00 0.01 0.00 0.00 0.00 0.00 0.00 0.00 0.00 0.00 0.00 0.00 0.00 0.00 0.00 0.00 0.00 0.00 0.00 0.00 0.00 0.00 0.00 0.00 0.00 0.00 0.00 0.00 0.00 0.00 0.00 0.00 0.00 0.00 0.00 0.00 0.00 0.00 0.00 0.00 0.00 0.00 0.00 0.00 0.00 0.00 0.00 0.00 0.00 0.00 0.00 0.00 0.00 0.00 0.00 0.00 0.00 0.00 0.00 0.00 0.00 0.00 0.00 0.00 0.00 0.00 0.00
0.01 0.00 0.00 0.00 -0.01 -0.01 -0.02 -0.00 0.00 0.00 0.00 -0.00 -0.11 -0.11 -0.17 -0.10 -0.10 -0.01 -0.01 0.01 0.01 0.04 0.01 0.00 0.01 0.01 0.00 0.00 0.01 0.01 0.06 0.07 0.07 0.07 0.01 0.00 0.00 0.00 0.00 0.00 0.00 0.00 0.00 0.00 0.00 0.00 0.00 0.00 0.00 0.00 0.00 0.00 0.00 0.00 0.00 0.00 0.00 0.00 0.00 0.00 0.00 0.00 0.00 0.00 0.00 0.00 0.00 0.00 0.00 0.00 0.00 0.00 0.00 0.00 0.00 0.00 0.00 0.00 0.00 0.00 0.00 0.00 0.00 0.00 0.00 0.00 0.00 0.00 0.00 0.00 0.00 0.00 0.00 0.00 0.00 0.00 0.00 0.00 0.00 0.00 0.00 0.00 0.00
0.09 0.01 0.00 0.00 -0.02 -0.02 -0.01 -0.01 0.00 0.00 -0.00 -0.00 -0.01 -0.01 -0.22 -0.17 -0.17 -0.03 -0.02 -0.01 -0.01 0.00 0.03 0.04 0.01 0.01 0.01 0.00 0.00 0.00 0.00 0.01 0.06 0.06 0.02 -0.00 -0.00 0.00 0.00 0.00 0.00 0.00 0.00 0.00 0.00 0.00 0.00 0.00 0.00 0.00 0.00 0.00 0.00 0.00 0.00 0.00 0.00 0.00 0.00 0.00 0.00 0.00 0.00 0.00 0.00 0.00 0.00 0.00 0.00 0.00 0.00 0.00 0.00 0.00 0.00 0.00 0.00 0.00 0.00 0.00 0.00 0.00 0.00 0.00 0.00 0.00 0.00 0.00 0.00 0.00 0.00 0.00 0.00 0.00 0.00 0.00 0.00 0.00 0.00 0.00 0.00 0.00 0.00
0.11 0.05 0.01 0.00 -0.02 -0.02 -0.00 -0.01 0.00 0.00 -0.00 -0.00 -0.01 -0.01 -0.22 -0.24 -0.24 -0.04 -0.02 -0.02 -0.02 -0.00 0.01 0.05 0.03 0.03 0.02 0.01 0.01 0.01 0.01 0.01 0.01 0.01 0.04 0.01 0.01 0.00 0.00 0.00 0.00 0.00 0.00 0.00 0.00 0.00 0.00 0.00 0.00 0.00 0.00 0.00 0.00 0.00 0.00 0.00 0.00 0.00 0.00 0.00 0.00 0.00 0.00 0.00 0.00 0.00 0.00 0.00 0.00 0.00 0.00 0.00 0.00 0.00 0.00 0.00 0.00 0.00 0.00 0.00 0.00 0.00 0.00 0.00 0.00 0.00 0.00 0.00 0.00 0.00 0.00 0.00 0.00 0.00 0.00 0.00 0.00 0.00 0.00 0.00 0.00 0.00 0.00
0.03 0.03 0.02 0.01 -0.02 -0.02 -0.00 -0.01 -0.00 -0.00 -0.00 -0.01 -0.01 -0.01 -0.17 -0.28 -0.28 -0.13 -0.04 -0.03 -0.03 -0.00 0.00 0.04 0.05 0.05 0.03 0.02 0.02 0.02 0.01 0.02 0.01 0.01 0.02 0.01 0.01 0.00 0.00 0.00 0.00 0.00 0.00 0.00 0.00 0.00 0.00 0.00 0.00 0.00 0.00 0.00 0.00 0.00 0.00 0.00 0.00 0.00 0.00 0.00 0.00 0.00 0.00 0.00 0.00 0.00 0.00 0.00 0.00 0.00 0.00 0.00 0.00 0.00 0.00 0.00 0.00 0.00 0.00 0.00 0.00 0.00 0.00 0.00 0.00 0.00 0.00 0.00 0.00 0.00 0.00 0.00 0.00 0.00 0.00 0.00 0.00 0.00 0.00 0.00 0.00 0.00 0.00
0.09 0.06 0.03 0.01 -0.02 -0.02 -0.00 -0.01 0.00 0.00 -0.00 -0.01 -0.01 -0.01 -0.09 -0.27 -0.27 -0.17 -0.05 -0.04 -0.04 0.00 0.01 0.03 0.04 0.04 0.03 0.03 0.03 0.03 0.01 0.02 0.01 0.01 0.01 0.00 0.00 0.00 0.00 0.00 0.00 0.00 0.00 0.00 0.00 0.00 0.00 0.00 0.00 0.00 0.00 0.00 0.00 0.00 0.00 0.00 0.00 0.00 0.00 0.00 0.00 0.00 0.00 0.00 0.00 0.00 0.00 0.00 0.00 0.00 0.00 0.00 0.00 0.00 0.00 0.00 0.00 0.00 0.00 0.00 0.00 0.00 0.00 0.00 0.00 0.00 0.00 0.00 0.00 0.00 0.00 0.00 0.00 0.00 0.00 0.00 0.00 0.00 0.00 0.00 0.00 0.00 0.00
0.12 0.13 0.10 0.05 -0.01 -0.01 0.00 0.00 0.00 0.00 0.00 -0.00 -0.01 -0.01 -0.02 -0.19 -0.19 -0.19 -0.03 -0.03 -0.03 -0.04 0.01 0.03 0.04 0.04 0.04 0.02 0.03 0.03 0.02 0.02 0.01 0.01 0.01 0.01 0.01 0.00 0.00 0.00 0.00 0.00 0.00 0.00 0.00 0.00 0.00 0.00 0.00 0.00 0.00 0.00 0.00 0.00 0.00 0.00 0.00 0.00 0.00 0.00 0.00 0.00 0.00 0.00 0.00 0.00 0.00 0.00 0.00 0.00 0.00 0.00 0.00 0.00 0.00 0.00 0.00 0.00 0.00 0.00 0.00 0.00 0.00 0.00 0.00 0.00 0.00 0.00 0.00 0.00 0.00 0.00 0.00 0.00 0.00 0.00 0.00 0.00 0.00 0.00 0.00 0.00 0.00
0.08 0.08 0.10 0.08 -0.00 -0.00 0.01 0.00 0.00 0.00 0.00 -0.00 -0.01 -0.01 -0.01 -0.08 -0.08 -0.14 0.03 0.03 0.03 -0.01 0.02 0.03 0.05 0.05 0.05 0.03 0.02 0.02 0.02 0.02 0.01 0.01 0.00 0.01 0.01 0.00 0.00 0.00 0.00 0.00 0.00 0.00 0.00 0.00 0.00 0.00 0.00 0.00 0.00 0.00 0.00 0.00 0.00 0.00 0.00 0.00 0.00 0.00 0.00 0.00 0.00 0.00 0.00 0.00 0.00 0.00 0.00 0.00 0.00 0.00 0.00 0.00 0.00 0.00 0.00 0.00 0.00 0.00 0.00 0.00 0.00 0.00 0.00 0.00 0.00 0.00 0.00 0.00 0.00 0.00 0.00 0.00 0.00 0.00 0.00 0.00 0.00 0.00 0.00 0.00 0.00
0.13 0.13 0.07 0.07 0.07 0.07 0.04 0.01 -0.00 -0.00 -0.00 -0.00 -0.00 -0.00 -0.01 -0.04 -0.04 -0.08 -0.06 -0.02 -0.02 0.01 0.04 0.03 0.04 0.04 0.05 0.04 0.02 0.02 0.02 0.02 0.02 0.02 0.01 0.00 0.00 0.00 0.00 0.00 0.00 0.00 0.00 0.00 0.00 0.00 0.00 0.00 0.00 0.00 0.00 0.00 0.00 0.00 0.00 0.00 0.00 0.00 0.00 0.00 0.00 0.00 0.00 0.00 0.00 0.00 0.00 0.00 0.00 0.00 0.00 0.00 0.00 0.00 0.00 0.00 0.00 0.00 0.00 0.00 0.00 0.00 0.00 0.00 0.00 0.00 0.00 0.00 0.00 0.00 0.00 0.00 0.00 0.00 0.00 0.00 0.00 0.00 0.00 0.00 0.00 0.00 0.00
0.16 0.18 0.12 0.15 0.14 0.14 0.11 0.07 0.00 0.00 0.00 -0.00 -0.00 -0.00 -0.00 -0.01 -0.01 -0.04 -0.03 -0.02 -0.02 -0.04 0.03 0.04 0.04 0.04 0.05 0.04 0.04 0.04 0.03 0.03 0.02 0.02 0.01 0.00 0.00 0.00 0.00 0.00 0.00 0.00 0.00 0.00 0.00 0.00 0.00 0.00 0.00 0.00 0.00 0.00 0.00 0.00 0.00 0.00 0.00 0.00 0.00 0.00 0.00 0.00 0.00 0.00 0.00 0.00 0.00 0.00 0.00 0.00 0.00 0.00 0.00 0.00 0.00 0.00 0.00 0.00 0.00 0.00 0.00 0.00 0.00 0.00 0.00 0.00 0.00 0.00 0.00 0.00 0.00 0.00 0.00 0.00 0.00 0.00 0.00 0.00 0.00 0.00 0.00 0.00 0.01
0.21 0.20 0.17 0.20 0.16 0.16 0.17 0.16 0.04 0.04 0.01 0.00 -0.00 -0.00 -0.00 -0.00 -0.00 -0.02 -0.01 -0.01 -0.01 -0.03 0.00 0.03 0.04 0.04 0.05 0.04 0.04 0.04 0.04 0.04 0.04 0.04 0.01 0.00 0.00 0.00 0.00 0.00 0.00 0.00 0.00 0.00 0.00 0.00 0.00 0.00 0.00 0.00 0.00 0.00 0.00 0.00 0.00 0.00 0.00 0.00 0.00 0.00 0.00 0.00 0.00 0.00 0.00 0.00 0.00 0.00 0.00 0.00 0.00 0.00 0.00 0.00 0.00 0.00 0.00 0.00 0.00 0.00 0.00 0.00 0.00 0.00 0.00 0.00 0.00 0.00 0.00 0.00 0.00 0.00 0.00 0.00 0.00 0.00 0.00 0.00 0.00 0.00 0.00 0.00 0.00
0.28 0.25 0.26 0.23 0.22 0.22 0.24 0.21 0.19 0.19 0.05 0.03 0.00 0.00 -0.00 -0.00 -0.00 -0.00 0.00 -0.00 -0.00 -0.01 0.01 0.02 0.02 0.02 0.03 0.05 0.03 0.03 0.04 0.04 0.05 0.05 0.02 0.01 0.01 0.01 0.00 0.00 0.00 0.00 0.00 0.00 0.00 0.00 0.00 0.00 0.00 0.00 0.00 0.00 0.00 0.00 0.00 0.00 0.00 0.00 0.00 0.00 0.00 0.00 0.00 0.00 0.00 0.00 0.00 0.00 0.00 0.00 0.00 0.00 0.00 0.00 0.00 0.00 0.00 0.00 0.00 0.00 0.00 0.00 0.00 0.00 0.00 0.00 0.00 0.00 0.00 0.00 0.00 0.00 0.00 0.00 0.00 0.00 0.00 0.00 0.00 0.00 0.00 0.00 0.00
0.31 0.18 0.21 0.25 0.22 0.22 0.25 0.25 0.21 0.21 0.11 0.08 0.02 0.02 0.00 0.00 0.00 0.00 0.01 0.01 0.01 0.01 0.02 0.02 0.01 0.01 0.02 0.03 0.04 0.04 0.02 0.03 0.04 0.04 0.06 0.02 0.02 0.01 0.00 0.00 0.00 0.00 0.00 0.00 0.00 0.00 0.00 0.00 0.00 0.00 0.00 0.00 0.00 0.00 0.00 0.00 0.00 0.00 0.00 0.00 0.00 0.00 0.00 0.00 0.00 0.00 0.00 0.00 0.00 0.00 0.00 0.00 0.00 0.00 0.00 0.00 0.00 0.00 0.00 0.00 0.00 0.00 0.00 0.00 0.00 0.00 0.00 0.00 0.00 0.00 0.00 0.00 0.00 0.00 0.00 0.00 0.00 0.00 0.00 -0.00 -0.00 -0.00 -0.00
0.22 0.17 0.22 0.20 0.20 0.20 0.18 0.19 0.18 0.18 0.13 0.13 0.10 0.10 0.02 0.00 0.00 0.01 0.01 0.01 0.01 0.02 0.03 0.03 0.02 0.02 0.02 0.03 0.06 0.06 0.04 0.02 0.03 0.03 0.04 0.03 0.03 0.02 0.01 0.00 0.00 0.00 0.00 0.00 0.00 0.00 0.00 0.00 0.00 0.00 0.00 0.00 0.00 0.00 0.00 0.00 0.00 0.00 0.00 0.00 0.00 0.00 0.00 0.00 0.00 0.00 0.00 0.00 0.00 0.00 0.00 0.00 0.00 0.00 0.00 0.00 0.00 0.00 0.00 0.00 0.00 0.00 -0.00 0.00 -0.00 -0.00 0.00 -0.00 0.00 0.00 0.00 0.00 0.00 0.00 0.00 0.00 0.00 0.00 0.00 -0.00 -0.00 0.00 -0.00
0.24 0.28 0.26 0.24 0.22 0.22 0.18 0.18 0.17 0.17 0.19 0.21 0.18 0.18 0.07 0.04 0.04 0.06 0.01 0.01 0.01 0.01 0.03 0.04 0.02 0.02 0.02 0.03 0.06 0.06 0.05 0.04 0.02 0.02 0.03 0.04 0.04 0.03 0.02 0.00 0.00 0.00 0.00 0.00 0.00 0.00 0.00 0.00 0.00 0.00 0.00 0.00 0.00 0.00 0.00 0.00 0.00 0.00 0.00 0.00 0.00 0.00 0.00 0.00 0.00 0.00 0.00 0.00 0.00 0.00 0.00 0.00 0.00 0.00 0.00 0.00 0.00 -0.00 0.00 0.00 0.00 0.00 0.00 0.00 -0.00 -0.00 -0.00 -0.00 -0.00 -0.00 -0.00 -0.00 -0.00 -0.00 0.00 -0.00 -0.00 -0.00 -0.00 0.00 0.00 -0.00 -0.00
0.28 0.29 0.29 0.24 0.22 0.22 0.23 0.29 0.28 0.28 0.21 0.24 0.24 0.24 0.15 0.17 0.17 0.14 0.02 0.01 0.01 0.01 0.01 0.02 0.03 0.03 0.02 0.03 0.05 0.05 0.05 0.05 0.02 0.02 0.03 0.03 0.03 0.03 0.02 0.01 0.01 0.00 0.00 0.00 0.00 0.00 0.00 0.00 0.00 0.00 0.00 0.00 0.00 0.00 0.00 0.00 0.00 0.00 0.00 0.00 0.00 0.00 0.00 0.00 0.00 0.00 0.00 0.00 0.00 0.00 0.00 0.00 0.00 0.00 0.01 0.02 0.02 -0.00 0.00 0.00 0.00 0.00 0.00 0.00 0.00 0.00 -0.00 0.00 -0.00 -0.00 -0.00 -0.00 -0.00 -0.00 -0.00 -0.00 -0.00 -0.00 -0.00 -0.00 -0.00 0.00 0.00
0.32 0.32 0.31 0.33 0.31 0.31 0.33 0.27 0.23 0.23 0.22 0.22 0.22 0.22 0.19 0.23 0.23 0.18 0.04 0.02 0.02 0.01 0.03 0.02 0.02 0.02 0.02 0.02 0.03 0.03 0.04 0.04 0.04 0.04 0.03 0.03 0.03 0.03 0.02 0.02 0.02 0.00 0.00 0.00 0.00 0.00 0.00 0.00 0.00 0.00 0.00 0.00 0.00 0.00 0.00 0.00 0.00 0.00 0.00 0.00 0.00 0.00 0.00 0.00 0.00 0.00 0.00 0.00 0.00 0.00 0.00 0.00 0.00 0.00 0.00 0.02 0.02 0.00 0.00 0.00 0.00 0.00 0.00 0.00 0.00 0.00 0.00 0.00 -0.00 -0.00 -0.00 -0.00 -0.00 -0.00 -0.00 -0.00 -0.00 -0.00 -0.00 0.00 0.00 -0.00 -0.00
0.24 0.32 0.31 0.36 0.35 0.35 0.33 0.31 0.24 0.24 0.25 0.25 0.26 0.26 0.24 0.23 0.23 0.22 0.15 0.05 0.05 0.05 0.04 0.02 0.02 0.02 0.03 0.04 0.04 0.04 0.03 0.03 0.03 0.03 0.03 0.02 0.02 0.03 0.03 0.03 0.03 0.02 0.00 0.01 0.00 0.00 0.00 0.00 0.00 0.00 0.00 0.00 0.00 0.00 0.00 0.00 0.00 0.00 0.00 0.00 0.00 0.00 0.00 0.00 0.00 0.00 0.00 0.00 0.00 0.00 0.00 0.00 0.00 0.00 0.00 0.00 0.00 0.01 0.00 0.00 0.00 0.00 0.00 0.00 0.00 0.00 0.00 0.00 0.00 0.00 -0.00 -0.00 -0.00 -0.00 -0.00 -0.00 -0.00 -0.00 -0.00 -0.00 -0.00 -0.00 -0.00
0.25 0.24 0.26 0.29 0.41 0.41 0.34 0.28 0.29 0.29 0.27 0.23 0.23 0.23 0.22 0.22 0.22 0.19 0.12 0.04 0.04 0.08 0.08 0.04 0.03 0.03 0.06 0.06 0.06 0.06 0.03 0.03 0.03 0.03 0.02 0.02 0.02 0.02 0.05 0.03 0.03 0.03 0.01 0.02 0.01 0.01 0.00 0.00 0.00 0.00 0.00 0.00 0.00 0.00 0.00 0.00 0.00 0.00 0.00 0.00 0.00 0.00 0.00 0.00 0.00 0.00 0.00 0.00 0.00 0.00 0.00 0.00 0.00 0.00 0.00 0.00 0.00 0.01 0.00 0.00 0.00 0.00 0.00 0.00 0.00 0.00 0.00 0.00 0.00 0.00 0.00 0.00 0.00 0.00 -0.00 -0.00 -0.00 -0.00 -0.00 -0.00 -0.00 -0.00 -0.00
0.37 0.28 0.26 0.26 0.26 0.26 0.28 0.28 0.25 0.25 0.24 0.24 0.20 0.20 0.27 0.20 0.20 0.16 0.12 0.05 0.05 0.05 0.06 0.06 0.07 0.07 0.08 0.07 0.08 0.08 0.06 0.04 0.04 0.04 0.03 0.02 0.02 0.02 0.02 0.03 0.03 0.03 0.05 0.01 0.01 0.01 0.01 0.00 0.00 0.00 0.00 0.00 0.00 0.00 0.00 0.00 0.00 0.00 0.00 0.00 0.00 0.00 0.00 0.00 0.00 0.00 0.00 0.00 0.00 0.00 0.00 0.00 0.00 0.00 0.00 0.00 0.00 0.00 0.00 0.00 0.00 0.00 0.00 0.00 0.00 0.00 0.00 0.00 0.00 0.00 0.00 0.00 0.00 0.00 0.00 0.00 0.00 -0.00 -0.00 -0.01 -0.01 -0.01 -0.01
0.41 0.40 0.31 0.27 0.24 0.24 0.22 0.23 0.26 0.26 0.26 0.30 0.30 0.30 0.30 0.28 0.28 0.23 0.19 0.10 0.10 0.07 0.05 0.08 0.09 0.09 0.07 0.06 0.06 0.06 0.05 0.05 0.05 0.05 0.04 0.02 0.02 0.02 0.03 0.03 0.03 0.06 0.07 0.01 0.03 0.03 0.03 0.01 0.00 0.00 0.00 0.00 0.00 0.00 0.00 0.00 0.00 0.00 0.00 0.00 0.00 0.00 0.00 0.00 0.00 0.00 0.00 0.00 0.00 0.00 0.00 0.00 0.00 0.00 0.00 0.00 0.00 0.00 0.00 0.00 0.00 0.00 0.00 0.00 0.00 0.00 0.00 0.00 0.00 0.00 0.00 0.00 0.00 0.00 0.00 0.00 0.00 0.00 -0.00 -0.00 -0.00 -0.01 -0.01
0.29 0.42 0.35 0.31 0.29 0.29 0.26 0.20 0.22 0.22 0.25 0.32 0.24 0.24 0.27 0.27 0.27 0.26 0.28 0.23 0.23 0.11 0.10 0.13 0.11 0.11 0.09 0.06 0.04 0.04 0.04 0.04 0.05 0.05 0.03 0.03 0.03 0.03 0.02 0.02 0.02 0.05 0.03 0.02 0.05 0.05 0.02 0.01 0.01 0.01 0.01 0.00 0.00 0.00 0.00 0.00 0.00 0.00 0.00 0.00 0.00 0.00 0.00 0.00 0.00 0.00 0.00 0.00 0.00 0.00 0.00 0.00 0.00 0.00 0.00 0.00 0.00 0.00 0.00 0.00 0.00 0.00 0.00 0.00 0.00 0.00 0.00 0.00 0.00 0.00 0.00 0.00 0.00 0.00 0.00 0.00 0.00 0.00 0.00 0.00 0.00 -0.00 -0.01
0.12 0.31 0.36 0.30 0.21 0.21 0.20 0.21 0.20 0.20 0.20 0.25 0.20 0.20 0.21 0.20 0.20 0.19 0.18 0.17 0.17 0.12 0.16 0.16 0.18 0.18 0.12 0.07 0.04 0.04 0.04 0.07 0.05 0.05 0.03 0.03 0.03 0.02 0.02 0.02 0.02 0.03 0.02 0.02 0.04 0.04 0.02 0.01 0.01 0.01 0.01 0.02 0.00 0.00 0.00 0.00 0.00 0.00 0.00 0.00 0.00 0.00 0.00 0.00 0.00 0.00 0.00 0.00 0.00 0.00 0.00 0.00 0.00 0.00 0.00 0.00 0.00 0.00 0.00 0.00 0.00 0.00 0.00 0.00 0.00 0.00 0.00 0.00 0.00 0.00 0.00 0.00 0.00 0.00 0.00 0.00 0.00 0.00 0.00 0.00 0.00 0.00 -0.00
0.10 0.17 0.24 0.29 0.23 0.23 0.21 0.19 0.26 0.26 0.25 0.28 0.25 0.25 0.23 0.24 0.24 0.15 0.11 0.10 0.10 0.14 0.14 0.16 0.17 0.17 0.12 0.08 0.07 0.07 0.06 0.06 0.07 0.07 0.03 0.03 0.03 0.03 0.02 0.01 0.01 0.02 0.02 0.02 0.02 0.02 0.02 0.01 0.01 0.01 0.01 0.01 0.01 0.01 0.00 0.00 0.00 0.00 0.00 0.00 0.00 0.00 0.00 0.00 0.00 0.00 0.00 0.00 0.00 0.00 0.00 0.00 0.00 0.00 0.00 0.00 0.00 0.00 0.00 0.00 0.00 0.00 0.00 0.00 0.00 0.00 0.00 0.00 0.00 0.00 0.00 0.00 0.00 0.00 0.00 0.00 0.00 0.00 0.00 0.00 0.00 0.00 0.00
0.11 0.10 0.14 0.16 0.18 0.18 0.23 0.19 0.16 0.16 0.18 0.21 0.22 0.22 0.30 0.27 0.27 0.24 0.17 0.17 0.17 0.16 0.11 0.14 0.14 0.14 0.13 0.12 0.09 0.09 0.07 0.07 0.07 0.07 0.03 0.02 0.02 0.02 0.02 0.02 0.02 0.02 0.03 0.04 0.04 0.04 0.02 0.01 0.01 0.01 0.01 0.02 0.01 0.01 0.00 0.00 0.00 0.00 0.00 0.00 0.00 0.00 0.00 0.00 0.00 0.00 0.00 0.00 0.00 0.00 0.00 0.00 0.00 0.00 0.00 0.00 0.00 0.00 0.00 0.00 0.00 0.00 0.00 0.00 0.00 0.00 0.00 0.00 0.00 0.00 0.00 0.00 0.00 0.00 0.00 0.00 0.00 0.00 0.00 0.00 0.00 0.00 0.00
0.21 0.20 0.19 0.17 0.13 0.13 0.13 0.19 0.19 0.19 0.23 0.26 0.19 0.19 0.20 0.16 0.16 0.16 0.28 0.32 0.32 0.35 0.24 0.23 0.22 0.22 0.22 0.21 0.16 0.16 0.13 0.12 0.11 0.11 0.06 0.02 0.02 0.02 0.02 0.02 0.02 0.03 0.04 0.09 0.08 0.08 0.06 0.04 0.14 0.14 0.15 0.13 0.01 0.01 0.00 0.00 0.00 0.00 0.00 0.00 0.00 0.00 0.00 0.00 0.00 0.00 0.00 0.00 0.00 0.00 0.00 0.00 0.00 0.00 0.00 0.00 0.00 0.00 0.00 0.00 0.00 0.00 0.00 0.00 0.00 0.00 0.00 0.00 0.00 0.00 0.00 0.00 0.00 0.00 0.00 0.00 0.00 0.00 0.00 0.00 0.00 0.00 0.00
0.20 0.22 0.20 0.19 0.20 0.20 0.15 0.17 0.23 0.23 0.28 0.31 0.35 0.35 0.26 0.23 0.23 0.23 0.21 0.22 0.22 0.28 0.23 0.18 0.23 0.23 0.28 0.23 0.20 0.20 0.20 0.14 0.10 0.10 0.05 0.02 0.02 0.02 0.02 0.02 0.02 0.01 0.03 0.06 0.05 0.05 0.06 0.07 0.12 0.12 0.11 0.04 0.03 0.03 0.01 0.00 0.00 0.00 0.00 0.00 0.00 0.00 0.00 0.00 0.00 0.00 0.00 0.00 0.00 0.00 0.00 0.00 0.00 0.00 0.00 0.00 0.00 0.00 0.00 0.00 0.00 0.00 0.00 0.00 0.00 0.00 0.00 0.00 0.00 0.00 0.00 0.00 0.00 0.00 0.00 0.00 0.00 0.00 0.00 0.00 0.00 0.00 0.00
0.18 0.24 0.24 0.24 0.21 0.21 0.21 0.23 0.26 0.26 0.26 0.33 0.40 0.40 0.44 0.39 0.39 0.40 0.36 0.29 0.29 0.25 0.31 0.21 0.18 0.18 0.17 0.27 0.27 0.27 0.21 0.18 0.11 0.11 0.06 0.03 0.03 0.02 0.02 0.02 0.02 0.01 0.02 0.02 0.04 0.04 0.09 0.08 0.05 0.05 0.03 0.03 0.02 0.02 0.01 0.00 0.00 0.00 0.00 0.00 0.00 0.00 0.00 0.00 0.00 0.00 0.00 0.00 0.00 0.00 0.00 0.00 0.00 0.00 0.00 0.00 0.00 0.00 0.00 0.00 0.00 0.00 0.00 0.00 0.00 0.00 0.00 0.00 0.00 0.00 0.00 0.00 0.00 0.00 0.00 0.00 0.00 0.00 0.00 0.00 0.00 0.00 0.00
0.13 0.17 0.24 0.24 0.24 0.24 0.23 0.32 0.34 0.34 0.32 0.36 0.37 0.37 0.47 0.44 0.44 0.44 0.44 0.35 0.35 0.31 0.32 0.29 0.25 0.25 0.19 0.14 0.14 0.14 0.18 0.10 0.13 0.13 0.06 0.03 0.03 0.03 0.03 0.02 0.02 0.02 0.01 0.01 0.02 0.02 0.10 0.07 0.05 0.05 0.02 0.02 0.01 0.01 0.01 0.00 0.00 0.00 0.00 0.00 0.00 0.00 0.00 0.00 0.00 0.00 0.00 0.00 0.00 0.00 0.00 0.00 0.00 0.00 0.00 0.00 0.00 0.00 0.00 0.00 0.00 0.00 0.00 0.00 0.00 0.00 0.00 0.00 0.00 0.00 0.00 0.00 0.00 0.00 0.00 0.00 0.00 0.00 0.00 0.00 0.00 0.00 0.00
0.10 0.13 0.19 0.24 0.25 0.25 0.30 0.49 0.41 0.41 0.43 0.38 0.39 0.39 0.41 0.34 0.34 0.38 0.40 0.41 0.41 0.33 0.30 0.28 0.31 0.31 0.27 0.22 0.13 0.13 0.09 0.10 0.09 0.09 0.07 0.03 0.03 0.09 0.04 0.03 0.03 0.11 0.01 0.01 0.03 0.03 0.05 0.03 0.04 0.04 0.03 0.03 0.03 0.03 0.00 0.00 0.00 0.01 0.00 0.00 0.00 0.00 0.00 0.00 0.00 0.00 0.00 0.00 0.00 0.00 0.00 0.00 0.00 0.00 0.00 0.00 0.00 0.00 0.00 0.00 0.00 0.00 0.00 0.00 0.00 0.00 0.00 0.00 0.00 0.00 0.00 0.00 0.00 0.00 0.00 0.00 0.00 0.00 0.00 0.00 0.00 0.00 0.00
0.15 0.19 0.21 0.24 0.27 0.27 0.34 0.43 0.44 0.44 0.45 0.45 0.37 0.37 0.36 0.32 0.32 0.32 0.32 0.36 0.36 0.28 0.28 0.30 0.36 0.36 0.35 0.34 0.28 0.28 0.16 0.18 0.10 0.10 0.07 0.18 0.18 0.15 0.12 0.17 0.17 0.16 0.08 0.02 0.01 0.01 0.02 0.02 0.03 0.03 0.03 0.07 0.02 0.02 0.01 0.00 0.00 0.01 0.00 0.00 0.00 0.01 0.00 0.00 0.00 0.00 0.00 0.00 0.00 0.00 0.00 0.00 0.00 0.00 0.00 0.00 0.00 0.00 0.00 0.00 0.00 0.00 0.00 0.00 0.00 0.00 0.00 0.00 0.00 0.00 0.00 0.00 0.00 0.00 0.00 0.00 0.00 0.00 0.00 0.00 0.00 0.00 0.00
0.17 0.22 0.26 0.29 0.38 0.38 0.39 0.40 0.52 0.52 0.44 0.45 0.39 0.39 0.35 0.36 0.36 0.37 0.35 0.37 0.37 0.42 0.42 0.43 0.42 0.42 0.42 0.37 0.33 0.33 0.23 0.21 0.16 0.16 0.29 0.31 0.31 0.24 0.17 0.17 0.17 0.13 0.08 0.02 0.02 0.02 0.01 0.02 0.02 0.02 0.02 0.05 0.02 0.02 0.04 0.04 0.04 0.02 0.00 0.01 0.01 0.00 0.00 0.00 0.00 0.00 0.01 0.00 0.00 0.00 0.00 0.00 0.00 0.00 0.00 0.00 0.00 0.00 0.00 0.00 0.00 0.00 0.00 0.00 0.00 0.00 0.00 0.00 0.00 0.00 0.00 0.00 0.00 0.00 0.00 0.00 0.00 0.00 0.00 0.00 0.00 0.00 0.00
0.14 0.22 0.26 0.36 0.41 0.41 0.44 0.45 0.56 0.56 0.51 0.45 0.38 0.38 0.33 0.42 0.42 0.42 0.40 0.47 0.47 0.45 0.50 0.43 0.40 0.40 0.42 0.39 0.33 0.33 0.25 0.26 0.28 0.28 0.46 0.31 0.31 0.23 0.18 0.10 0.10 0.08 0.07 0.04 0.02 0.02 0.02 0.03 0.03 0.03 0.02 0.02 0.02 0.02 0.02 0.02 0.02 0.02 0.02 0.00 0.00 0.00 0.00 0.01 0.01 0.01 0.00 0.00 0.00 0.00 0.00 0.00 0.00 0.00 0.00 0.00 0.00 0.00 0.00 0.00 0.00 0.00 0.00 0.00 0.00 0.00 0.00 0.00 0.00 0.00 0.00 0.00 0.00 0.00 0.00 0.00 0.00 0.00 0.00 0.00 0.00 0.00 0.00
0.17 0.18 0.21 0.34 0.40 0.40 0.43 0.45 0.60 0.60 0.54 0.50 0.44 0.44 0.45 0.44 0.44 0.47 0.45 0.49 0.49 0.47 0.56 0.52 0.42 0.42 0.37 0.37 0.29 0.29 0.22 0.30 0.37 0.37 0.42 0.22 0.22 0.12 0.11 0.05 0.05 0.09 0.07 0.04 0.03 0.03 0.03 0.03 0.02 0.02 0.02 0.02 0.02 0.02 0.03 0.02 0.02 0.02 0.03 0.02 0.02 0.00 0.00 0.01 0.01 0.01 0.00 0.00 0.00 0.00 0.00 0.00 0.00 0.00 0.00 0.00 0.00 0.00 0.00 0.00 0.00 0.00 0.00 0.00 0.00 0.00 0.00 0.00 0.00 0.00 0.00 0.00 0.00 0.00 0.00 0.00 0.00 0.00 0.00 0.00 0.00 0.00 0.00
0.24 0.21 0.27 0.30 0.32 0.32 0.39 0.45 0.65 0.65 0.63 0.69 0.61 0.61 0.57 0.53 0.53 0.52 0.44 0.46 0.46 0.45 0.53 0.54 0.43 0.43 0.38 0.31 0.27 0.27 0.28 0.35 0.39 0.39 0.36 0.28 0.28 0.09 0.05 0.13 0.13 0.23 0.08 0.07 0.05 0.05 0.04 0.03 0.02 0.02 0.02 0.03 0.05 0.05 0.03 0.02 0.02 0.02 0.02 0.02 0.02 0.01 0.00 0.01 0.01 0.01 0.00 0.00 0.00 0.00 0.00 0.00 0.00 0.00 0.00 0.00 0.00 0.00 0.00 0.00 0.00 0.00 0.00 0.00 0.00 0.00 0.00 0.00 0.00 0.00 0.00 0.00 0.00 0.00 0.00 0.00 0.00 0.00 0.00 0.00 0.00 0.00 0.00
0.31 0.34 0.28 0.29 0.32 0.32 0.37 0.41 0.59 0.59 0.67 0.73 0.70 0.70 0.64 0.63 0.63 0.56 0.34 0.35 0.35 0.38 0.42 0.44 0.45 0.45 0.39 0.32 0.31 0.31 0.29 0.29 0.27 0.27 0.23 0.21 0.21 0.21 0.38 0.32 0.32 0.16 0.06 0.09 0.07 0.07 0.05 0.02 0.01 0.01 0.01 0.01 0.01 0.01 0.02 0.02 0.02 0.02 0.01 0.02 0.02 0.01 0.01 0.01 0.01 0.01 0.01 0.00 0.00 0.00 0.00 0.00 0.00 0.00 0.00 0.00 0.00 0.00 0.00 0.00 0.00 0.00 0.00 0.00 0.00 0.00 0.00 0.00 0.00 0.00 0.00 0.00 0.00 0.00 0.00 0.00 0.00 0.00 0.00 0.00 0.00 0.00 0.00
0.53 0.44 0.35 0.32 0.26 0.26 0.33 0.35 0.41 0.41 0.57 0.60 0.61 0.61 0.55 0.57 0.57 0.53 0.40 0.28 0.28 0.30 0.33 0.38 0.43 0.43 0.43 0.38 0.31 0.31 0.27 0.26 0.23 0.23 0.28 0.26 0.26 0.31 0.23 0.14 0.14 0.07 0.03 0.05 0.08 0.08 0.04 0.01 0.00 0.00 0.00 0.00 0.01 0.01 0.01 0.02 0.02 0.01 0.03 0.02 0.02 0.01 0.02 0.01 0.01 0.01 0.00 0.00 0.00 0.00 0.00 0.00 0.00 0.00 0.00 0.00 0.00 0.00 0.00 0.00 0.00 0.00 0.00 0.00 0.00 0.00 0.00 0.00 0.00 0.00 0.00 0.00 0.00 0.00 0.00 0.00 0.00 0.00 0.00 0.00 0.00 0.00 0.00
0.25 0.45 0.43 0.38 0.30 0.30 0.27 0.28 0.31 0.31 0.51 0.63 0.66 0.66 0.58 0.55 0.55 0.47 0.42 0.29 0.29 0.27 0.31 0.35 0.38 0.38 0.47 0.37 0.27 0.27 0.28 0.22 0.22 0.22 0.24 0.25 0.25 0.25 0.15 0.08 0.08 0.07 0.06 0.03 0.05 0.05 0.00 0.00 0.00 0.00 0.00 0.00 0.00 0.00 0.00 0.01 0.01 0.01 0.02 0.01 0.01 0.01 0.02 0.02 0.00 0.00 0.00 0.00 0.00 0.00 0.00 0.00 0.00 0.00 0.00 0.00 0.00 0.00 0.00 0.00 0.00 0.00 0.00 0.00 0.00 0.00 0.00 0.00 0.00 0.00 0.00 0.00 0.00 0.00 0.00 0.00 0.00 0.00 0.00 0.00 0.00 0.00 0.00
0.16 0.36 0.38 0.40 0.36 0.36 0.32 0.30 0.32 0.32 0.44 0.63 0.70 0.70 0.64 0.52 0.52 0.49 0.50 0.34 0.34 0.33 0.33 0.36 0.35 0.35 0.35 0.33 0.31 0.31 0.25 0.21 0.20 0.20 0.22 0.18 0.18 0.19 0.11 0.16 0.16 0.16 0.13 0.10 0.01 0.01 0.00 0.00 0.00 0.00 0.00 0.00 0.00 0.00 0.00 0.00 0.00 0.00 0.01 0.00 0.00 0.00 0.00 0.00 0.00 0.00 0.00 0.00 0.00 0.00 0.00 0.00 0.00 0.00 0.00 0.00 0.00 0.00 0.00 0.00 0.00 0.00 0.00 0.00 0.00 0.00 0.00 0.00 0.00 0.00 0.00 0.00 0.00 0.00 0.00 0.00 0.00 0.00 0.00 0.00 0.00 0.00 0.00
0.16 0.35 0.33 0.35 0.39 0.39 0.34 0.34 0.35 0.35 0.41 0.55 0.64 0.64 0.64 0.59 0.59 0.64 0.61 0.55 0.55 0.50 0.46 0.48 0.39 0.39 0.36 0.34 0.33 0.33 0.29 0.25 0.18 0.18 0.13 0.15 0.15 0.11 0.19 0.22 0.22 0.06 0.05 0.05 0.00 0.00 0.00 0.00 0.00 0.00 0.01 0.00 0.00 0.00 0.00 0.00 0.00 0.00 0.00 0.00 0.00 0.00 0.00 0.00 0.00 0.00 0.00 0.00 0.00 0.00 0.00 0.00 0.00 0.00 0.00 0.00 0.00 0.00 0.00 0.00 0.00 0.00 0.00 0.00 0.00 0.00 0.00 0.00 0.00 0.00 0.00 0.00 0.00 0.00 0.00 0.00 0.00 0.00 0.00 0.00 0.00 0.00 0.00
0.20 0.30 0.33 0.32 0.32 0.32 0.36 0.36 0.32 0.32 0.33 0.48 0.55 0.55 0.60 0.57 0.57 0.63 0.57 0.56 0.56 0.46 0.45 0.50 0.55 0.55 0.42 0.40 0.38 0.38 0.36 0.28 0.22 0.22 0.13 0.12 0.12 0.22 0.21 0.23 0.23 0.06 0.02 0.01 0.00 0.00 0.00 0.00 0.00 0.00 0.00 0.00 0.00 0.00 0.00 0.00 0.00 0.00 0.00 0.00 0.00 0.00 0.00 0.00 0.00 0.00 0.00 0.00 0.00 0.00 0.00 0.00 0.00 0.00 0.00 0.00 0.00 0.00 0.00 0.00 0.00 0.00 0.00 0.00 0.00 0.00 0.00 0.00 0.00 0.00 0.00 0.00 0.00 0.00 0.00 0.00 0.00 0.00 0.00 0.00 0.00 0.00 0.00
0.30 0.28 0.33 0.36 0.30 0.30 0.36 0.36 0.34 0.34 0.31 0.35 0.46 0.46 0.43 0.41 0.41 0.40 0.45 0.44 0.44 0.38 0.42 0.52 0.55 0.55 0.50 0.53 0.57 0.57 0.50 0.27 0.24 0.24 0.17 0.16 0.16 0.24 0.27 0.32 0.32 0.33 0.15 0.03 0.04 0.04 0.01 0.00 0.00 0.00 0.00 0.00 0.00 0.00 0.00 0.00 0.00 0.00 0.00 0.00 0.00 0.00 0.00 0.00 0.00 0.00 0.00 0.00 0.00 0.00 0.00 0.00 0.00 0.00 0.00 0.00 0.00 0.00 0.00 0.00 0.00 0.00 0.00 0.00 0.00 0.00 0.00 0.00 0.00 0.00 0.00 0.00 0.00 0.00 0.00 0.00 0.00 0.00 0.00 0.00 0.00 0.00 0.00
0.38 0.40 0.31 0.33 0.35 0.35 0.31 0.34 0.38 0.38 0.39 0.31 0.39 0.39 0.37 0.30 0.30 0.28 0.30 0.31 0.31 0.30 0.36 0.43 0.41 0.41 0.38 0.52 0.59 0.59 0.52 0.39 0.22 0.22 0.21 0.31 0.31 0.25 0.25 0.34 0.34 0.36 0.32 0.12 0.08 0.08 0.03 0.01 0.00 0.00 0.00 0.00 0.00 0.00 0.00 0.00 0.00 0.00 0.00 0.00 0.00 0.00 0.00 0.00 0.00 0.00 0.00 0.00 0.00 0.00 0.00 0.00 0.00 0.00 0.00 0.00 0.00 0.00 0.00 0.00 0.00 0.00 0.00 0.00 0.00 0.00 0.00 0.00 0.00 0.00 0.00 0.00 0.00 0.00 0.00 0.00 0.00 0.00 0.00 0.00 0.00 0.00 0.00
0.48 0.59 0.46 0.42 0.34 0.34 0.37 0.36 0.39 0.39 0.37 0.42 0.39 0.39 0.39 0.33 0.33 0.28 0.29 0.29 0.29 0.30 0.37 0.36 0.36 0.36 0.55 0.56 0.56 0.56 0.50 0.42 0.25 0.25 0.22 0.35 0.35 0.18 0.15 0.24 0.24 0.27 0.24 0.14 0.10 0.10 0.05 0.01 0.00 0.00 0.00 0.00 0.00 0.00 0.00 0.00 0.00 0.00 0.00 0.00 0.00 0.00 0.00 0.00 0.00 0.00 0.00 0.00 0.00 0.00 0.00 0.00 0.00 0.00 0.00 0.00 0.00 0.00 0.00 0.00 0.00 0.00 0.00 0.00 0.00 0.00 0.00 0.00 0.00 0.00 0.00 0.00 0.00 0.00 0.00 0.00 0.00 0.00 0.00 0.00 0.00 0.00 0.00